ARIANE 44L DEB, 27669

Orbit data source: Space-Track

ARIANE 44L DEB, 27669 is space debris in HEO originally from a launch on Tue, 29 Oct 1991 UTC launched from the French Guiana (FRGUI). Debris objects in space refer to the collection of defunct objects orbiting the Earth. Examples of debris include non-operational satellites, rocket bodies, and fragments generated from explosions, collisions, or faulty payload assembly.

Loading next visibility...
Identifier
27669, 1991-075E
Orbit
HEO
Country
Flag of FRFR
Related business
Manufacturer
Unknown
Mission
Spacecraft
Bus & Motor
Unknown
Mass
Unknown
Launch date (UTC)
1991-10-29 (35 years ago)
Launch vehicle
Unknown
Launch site
French Guiana (FRGUI)
Object type
Payload
Rocket body
Debris
Shape & HBR
Unknown shape, 0.5 m
Radar Cross Section
Medium (>0.1 m² and <1 m²)

Expand to show TLE details & history
Last TLE update: 2 days ago

TLE from 2 days ago
0 ARIANE 44L DEB
1 27669U 91075E   26171.39510397  .00613705  00000-0  14836-1 0  9991
2 27669   7.8990 136.4184 4701316  34.6495 348.4968  6.25474077341388
Epoch: 2026-06-20T09:28Z
TLE epoch observation values (Epoch: 2026-06-20T09:28:56.983Z)
Latitude
-0°
Longitude
85.53132°
Altitude
613.352 km
Speed
9.055 km/s
True Right ascension
09h 05m 30s
True Declination
0° 00' 00"
Sunlit
Object was in daylight at epoch
Visualization orbit readout
Latitude
Unknown
Longitude
Unknown
Altitude
Unknown
Speed
Unknown
Apparent Right ascension
Unknown
Apparent Declination
Unknown
Sunlit
N/A
Visualization observer readout
Local Sidereal Time
00:37:46
Azimuth
Unknown
Elevation
Unknown
Doppler factor
Unknown
Orbital elements
Apogee altitude
11,922.241 km
Perigee altitude
217.73 km
Semi-major axis
12,448.122 km
Eccentricity
0.47013
Inclination
7.899°
RAAN
136.4184°
Arg. of periapsis
34.6495°
True anomaly
325.24946°
Mean anomaly
348.4968°
Eccentric anomaly
338.72147°
Mean motion
1.56274 °/min
Orbital period
230.36 mins
BSTAR
0.014836
Loading maneuver chart data...
Computing Atmospheric mass density...
Loading historical data...
Loading historical data...
Loading historical data...
Loading historical data...
Loading historical data...
Loading historical data...
Loading historical data...

Documentation

Showing up to 5 results
|